Torna al catalogo

FENGYUN 1C DEB

AttivoSSO
NORAD 30557·DEBRIS·🇨🇳 China

Lanciato May 10, 1999 da Taiyuan Satellite Launch Center

Loading…

Prossimi Passaggi (prossime 24 ore)

TLE

AggiornatoSource: Space-Track

Epoca: Sep 14, 2026, 14:42 UTC

1 30557U 99025AKX 26257.61264990  .00001646  00000-0  90409-3 0  9996
2 30557  98.9030 325.7479 0069690 172.9856 187.2308 14.11883492  1917

Traccia FENGYUN 1C DEB in tempo reale con AllMySat

Download on the App Store